Regional Weather Roundup
Issued by NWS Jackson, KY

Home | Current Version | Previous Version | Text Only | Print | Product List | Glossary On
Versions: 1 2 3 4 5 6 7 8 9 10 11 12 13 14 15 16 17 18 19 20 21 22 23 24 25 26 27 28 29 30 31 32 33 34 35 36 37 38 39 40 41 42 43 44 45 46 47 48 49 50
000
ASUS43 KJKL 260110
RWRJKL

EAST KENTUCKY HOURLY WEATHER ROUNDUP
NATIONAL WEATHER SERVICE JACKSON KY
800 PM EST SUN FEB 25 2018

NOTE: "FAIR" INDICATES FEW OR NO CLOUDS BELOW 12,000 FEET WITH
NO SIGNIFICANT WEATHER AND/OR OBSTRUCTIONS TO VISIBILITY.

* THESE REPORTS ARE NOT UNDER NWS QUALITY CONTROL AND MAY NOT
  REPORT WEATHER SUCH AS PRECIPITATION AND FOG.

KYZ079-080-083-085-087-088-110-112-115-119-120-260200
...EASTERN KENTUCKY...

CITY           SKY/WX    TMP DP  RH WIND       PRES   REMARKS
JACKSON          N/A     49  40  71 W5        30.13R
LONDON           N/A     49  39  68 S6        30.13R
SOMERSET*        N/A     46  36  66 CALM      30.15S
MONTICELLO*      N/A     47  43  86 N13       30.14F
WILLIAMSBURG*  MOCLDY    48  45  87 CALM      30.15R
MIDDLESBORO*     N/A     51  47  86 CALM      30.15R
HARLAN APT*      N/A     52  45  76 SW3       30.14R
PIKE CO APT*     N/A     51  41  69 CALM      30.11S
BIG SANDY APT*   N/A     50  38  61 CALM      30.13R
MOREHEAD APT*    N/A     46  36  66 W5        30.15R
ASHLAND*         N/A     46  41  82 CALM      30.11R
$$

KYZ035-036-041-042-044-050-067-078-099-260200
...CENTRAL KENTUCKY...

CITY           SKY/WX    TMP DP  RH WIND       PRES   REMARKS
MT STERLING*     N/A     45  34  65 CALM      30.15R
FLEMING/MASON*   N/A     43  36  74 W7        30.14R
DANVILLE*        N/A     45  36  70 CALM      30.13S
LEXINGTON        N/A     46  37  71 W3        30.12S
FRANKFORT        N/A     46  34  62 CALM      30.11F
LOUISVILLE     CLOUDY    47  33  58 W6        30.12F
LEBANON*         N/A     46  37  71 CALM      30.12F
GLASGOW*         N/A     47  41  80 CALM      30.12S
BOWLING GREEN    N/A     50  40  68 NW3       30.14R
$$

KYZ091>093-OHZ055-061-077-WVZ005-015-034-035-042-260200
...SOUTHERN OHIO/WEST VIRGINIA...

CITY           SKY/WX    TMP DP  RH WIND       PRES   REMARKS
COVINGTON      CLOUDY    44  32  62 W6        30.12R
COLUMBUS       MOCLDY    46  32  58 W9        30.08R
DAYTON         CLOUDY    39  34  82 W7        30.11R WCI  34
WILMINGTON       N/A     43  32  65 W8        30.09R
HUNTINGTON       N/A     50  32  50 W5        30.10R
CHARLESTON     MOCLDY    53  34  48 W5        30.09R
BECKLEY        CLOUDY    51  45  79 NW5       30.09R
BLUEFIELD        N/A     49  42  77 W5        30.10R
LOGAN CO APT*    N/A     52  39  62 SW5       30.10S
$$

VAZ002-007-008-TNZ017-027-036-066-071-260200
...SOUTHWEST VIRGINIA/EAST TENNESSEE...

CITY           SKY/WX    TMP DP  RH WIND       PRES   REMARKS
WISE*          MOCLDY    50  46  87 CALM      30.14R
JONESVILLE*      N/A     54  46  76 CALM      30.16R
ABINGDON*        N/A     54  49  85 W7        30.12R
BRISTOL        CLOUDY    54  51  90 SW7       30.14R
SEVIERVILLE*   CLOUDY    57  50  77 W3G12     30.16R
KNOXVILLE      CLOUDY    55  51  86 SW8       30.14R
LAFOLLETTE*    MOCLDY    54  48  82 CALM      30.17S
OAK RIDGE        N/A     56  50  80 S5        30.15R
CROSSVILLE     CLOUDY    49  46  90 CALM      30.13F
NASHVILLE      CLOUDY    52  44  74 E6        30.12S
$$

...KEY TO REMARKS...
VSB - VISIBILITY IN MILES
WCI - WIND CHILL INDEX
HX  - HEAT INDEX

$$



USA.gov is the U.S. government's official web portal to all federal, state and local government web resources and services.